{"data":{"norad_id":57739,"epoch":"2026-05-25T04:48:25.285824Z","epoch_age_seconds":64402,"freshness":"FRESH","line1":"1 57739U 23131H   26145.20029266  .00007525  00000+0  28263-3 0  9998","line2":"2 57739  43.0018  71.5594 0001396 260.9134  99.1559 15.27586882151955","mean_motion":15.27586882,"eccentricity":0.0001396,"inclination_deg":43.0018,"raan_deg":71.5594,"arg_perigee_deg":260.9134,"mean_anomaly_deg":99.1559,"bstar":0.00028263,"rev_number":15195,"period_min":94.266324028305,"perigee_km":482.07067023098,"apogee_km":483.98630763549,"semimajor_km":6861.1654889332,"source":"CELESTRAK","updated_at":"2026-05-25T13:38:18.399213Z"}}